Weather in Saints Constantine and Helena

Bulgaria     43°13′50″N   28°00′32″E
temp.,
°C
wind,
m/s
gust,
m/s
humid.,
%
clouds,
%
prec.,
mm/h
press.,
hPa
HPBL,
m
19 june, sat
sat1900:00+16wnw369170 0.2 1012122
03:00+16wnw611937 0.2 1011364
06:00+16wnw61095100 4.2 1010411
09:00+17w5994100 13.8 1011572
12:00+18w2490100 1.0 1011425
15:00+20ese328383 2.3 1011622
18:00+19ese338325 0.9 1011472
21:00+17e229272 1.1 1012106
20 june, sun
sun2000:00+16ne239393 0.1 1013101
03:00+16nnw239490 0.1 101265
06:00+16nnw239592 0.1 101272
09:00+19nw228324 0.1 1013433
12:00+22s017039 0.8 1013739
15:00+22se226837 2.6 1012791
18:00+22ssw12746 2.0 1011576
21:00+19wsw118678 2.7 101215
21 june, mon
mon2100:00+18wsw1189100 0.0 101213
03:00+17wnw229083 0.0 101121
06:00+17nw22898 0.0 101136
09:00+21ene0177100 0.0 1012255
12:00+23sse21706 0.0 1012702
15:00+23sse3270100 0.4 1012672
18:00+23se2275100 0.5 1012242
21:00+19ssw118991 2.1 101211
22 june, tue
tue2200:00+18sw229085 0.2 101325
03:00+19wsw228747 0.2 101119
06:00+18wsw11875 0.0 101111
09:00+22s117724 0.0 1012191
12:00+24se326999 0.0 1012650
15:00+25sse327029 0.0 1012611
18:00+23sse237784 1.1 1011236
21:00+19sse119114 5.7 101220
23 june, wed
wed2300:00+19ssw119298 4.6 101316
03:00+19w1287100 4.6 101211
06:00+20w228734 0.0 101216
09:00+23ene11795 0.0 1013179
12:00+26ese22698 0.0 1014623
15:00+26ese336920 2.6 1014581
18:00+23se118221 3.1 1014113
21:00+21ssw118749 4.1 101512